Year,Month,Day,Hour,Minute,Value (Times are PST for insolation in W/m^2)
2019,09,08,00,00,0.00
2019,09,08,00,01,0.00
2019,09,08,00,02,0.00
2019,09,08,00,03,0.00
2019,09,08,00,04,0.00
2019,09,08,00,05,0.00
2019,09,08,00,06,0.00
2019,09,08,00,07,0.00
2019,09,08,00,08,0.00
2019,09,08,00,09,0.00
2019,09,08,00,10,0.00
2019,09,08,00,11,0.00
2019,09,08,00,12,0.00
2019,09,08,00,13,0.00
2019,09,08,00,14,0.00
2019,09,08,00,15,0.00
2019,09,08,00,16,0.00
2019,09,08,00,17,0.00
2019,09,08,00,18,0.00
2019,09,08,00,19,0.00
2019,09,08,00,20,0.00
2019,09,08,00,21,0.00
2019,09,08,00,22,0.00
2019,09,08,00,23,0.00
2019,09,08,00,24,0.00
2019,09,08,00,25,0.00
2019,09,08,00,26,0.00
2019,09,08,00,27,0.00
2019,09,08,00,28,0.00
2019,09,08,00,29,0.00
2019,09,08,00,30,0.00
2019,09,08,00,31,0.00
2019,09,08,00,32,0.00
2019,09,08,00,33,0.00
2019,09,08,00,34,0.00
2019,09,08,00,35,0.00
2019,09,08,00,36,0.00
2019,09,08,00,37,0.00
2019,09,08,00,38,0.00
2019,09,08,00,39,0.00
2019,09,08,00,40,0.00
2019,09,08,00,41,0.00
2019,09,08,00,42,0.00
2019,09,08,00,43,0.00
2019,09,08,00,44,0.00
2019,09,08,00,45,0.00
2019,09,08,00,46,0.00
2019,09,08,00,47,0.00
2019,09,08,00,48,0.00
2019,09,08,00,49,0.00
2019,09,08,00,50,0.00
2019,09,08,00,51,0.00
2019,09,08,00,52,0.00
2019,09,08,00,53,0.00
2019,09,08,00,54,0.00
2019,09,08,00,55,0.00
2019,09,08,00,56,0.00
2019,09,08,00,57,0.00
2019,09,08,00,58,0.00
2019,09,08,00,59,0.00
2019,09,08,01,00,0.00
2019,09,08,01,01,0.00
2019,09,08,01,02,0.00
2019,09,08,01,03,0.00
2019,09,08,01,04,0.00
2019,09,08,01,05,0.00
2019,09,08,01,06,0.00
2019,09,08,01,07,0.00
2019,09,08,01,08,0.00
2019,09,08,01,09,0.00
2019,09,08,01,10,0.00
2019,09,08,01,11,0.00
2019,09,08,01,12,0.00
2019,09,08,01,13,0.00
2019,09,08,01,14,0.00
2019,09,08,01,15,0.00
2019,09,08,01,16,0.00
2019,09,08,01,17,0.00
2019,09,08,01,18,0.00
2019,09,08,01,19,0.00
2019,09,08,01,20,0.00
2019,09,08,01,21,0.00
2019,09,08,01,22,0.00
2019,09,08,01,23,0.00
2019,09,08,01,24,0.00
2019,09,08,01,25,0.00
2019,09,08,01,26,0.00
2019,09,08,01,27,0.00
2019,09,08,01,28,0.00
2019,09,08,01,29,0.00
2019,09,08,01,30,0.00
2019,09,08,01,31,0.00
2019,09,08,01,32,0.00
2019,09,08,01,33,0.00
2019,09,08,01,34,0.00
2019,09,08,01,35,0.00
2019,09,08,01,36,0.00
2019,09,08,01,37,0.00
2019,09,08,01,38,0.00
2019,09,08,01,39,0.00
2019,09,08,01,40,0.00
2019,09,08,01,41,0.00
2019,09,08,01,42,0.00
2019,09,08,01,43,0.00
2019,09,08,01,44,0.00
2019,09,08,01,45,0.00
2019,09,08,01,46,0.00
2019,09,08,01,47,0.00
2019,09,08,01,48,0.00
2019,09,08,01,49,0.00
2019,09,08,01,50,0.00
2019,09,08,01,51,0.00
2019,09,08,01,52,0.00
2019,09,08,01,53,0.00
2019,09,08,01,54,0.00
2019,09,08,01,55,0.00
2019,09,08,01,56,0.00
2019,09,08,01,57,0.00
2019,09,08,01,58,0.00
2019,09,08,01,59,0.00
2019,09,08,02,00,0.00
2019,09,08,02,01,0.00
2019,09,08,02,02,0.00
2019,09,08,02,03,0.00
2019,09,08,02,04,0.00
2019,09,08,02,05,0.00
2019,09,08,02,06,0.00
2019,09,08,02,07,0.00
2019,09,08,02,08,0.00
2019,09,08,02,09,0.00
2019,09,08,02,10,0.00
2019,09,08,02,11,0.00
2019,09,08,02,12,0.00
2019,09,08,02,13,0.00
2019,09,08,02,14,0.00
2019,09,08,02,15,0.00
2019,09,08,02,16,0.00
2019,09,08,02,17,0.00
2019,09,08,02,18,0.00
2019,09,08,02,19,0.00
2019,09,08,02,20,0.00
2019,09,08,02,21,0.00
2019,09,08,02,22,0.00
2019,09,08,02,23,0.00
2019,09,08,02,24,0.00
2019,09,08,02,25,0.00
2019,09,08,02,26,0.00
2019,09,08,02,27,0.00
2019,09,08,02,28,0.00
2019,09,08,02,29,0.00
2019,09,08,02,30,0.00
2019,09,08,02,31,0.00
2019,09,08,02,32,0.00
2019,09,08,02,33,0.00
2019,09,08,02,34,0.00
2019,09,08,02,35,0.00
2019,09,08,02,36,0.00
2019,09,08,02,37,0.00
2019,09,08,02,38,0.00
2019,09,08,02,39,0.00
2019,09,08,02,40,0.00
2019,09,08,02,41,0.00
2019,09,08,02,42,0.00
2019,09,08,02,43,0.00
2019,09,08,02,44,0.00
2019,09,08,02,45,0.00
2019,09,08,02,46,0.00
2019,09,08,02,47,0.00
2019,09,08,02,48,0.00
2019,09,08,02,49,0.00
2019,09,08,02,50,0.00
2019,09,08,02,51,0.00
2019,09,08,02,52,0.00
2019,09,08,02,53,0.00
2019,09,08,02,54,0.00
2019,09,08,02,55,0.00
2019,09,08,02,56,0.00
2019,09,08,02,57,0.00
2019,09,08,02,58,0.00
2019,09,08,02,59,0.00
2019,09,08,03,00,0.00
2019,09,08,03,01,0.00
2019,09,08,03,02,0.00
2019,09,08,03,03,0.00
2019,09,08,03,04,0.00
2019,09,08,03,05,0.00
2019,09,08,03,06,0.00
2019,09,08,03,07,0.00
2019,09,08,03,08,0.00
2019,09,08,03,09,0.00
2019,09,08,03,10,0.00
2019,09,08,03,11,0.00
2019,09,08,03,12,0.00
2019,09,08,03,13,0.00
2019,09,08,03,14,0.00
2019,09,08,03,15,0.00
2019,09,08,03,16,0.00
2019,09,08,03,17,0.00
2019,09,08,03,18,0.00
2019,09,08,03,19,0.00
2019,09,08,03,20,0.00
2019,09,08,03,21,0.00
2019,09,08,03,22,0.00
2019,09,08,03,23,0.00
2019,09,08,03,24,0.00
2019,09,08,03,25,0.00
2019,09,08,03,26,0.00
2019,09,08,03,27,0.00
2019,09,08,03,28,0.00
2019,09,08,03,29,0.00
2019,09,08,03,30,0.00
2019,09,08,03,31,0.00
2019,09,08,03,32,0.00
2019,09,08,03,33,0.00
2019,09,08,03,34,0.00
2019,09,08,03,35,0.00
2019,09,08,03,36,0.00
2019,09,08,03,37,0.00
2019,09,08,03,38,0.00
2019,09,08,03,39,0.00
2019,09,08,03,40,0.00
2019,09,08,03,41,0.00
2019,09,08,03,42,0.00
2019,09,08,03,43,0.00
2019,09,08,03,44,0.00
2019,09,08,03,45,0.00
2019,09,08,03,46,0.00
2019,09,08,03,47,0.00
2019,09,08,03,48,0.00
2019,09,08,03,49,0.00
2019,09,08,03,50,0.00
2019,09,08,03,51,0.00
2019,09,08,03,52,0.00
2019,09,08,03,53,0.00
2019,09,08,03,54,0.00
2019,09,08,03,55,0.00
2019,09,08,03,56,0.00
2019,09,08,03,57,0.00
2019,09,08,03,58,0.00
2019,09,08,03,59,0.00
2019,09,08,04,00,0.00
2019,09,08,04,01,0.00
2019,09,08,04,02,0.00
2019,09,08,04,03,0.00
2019,09,08,04,04,0.00
2019,09,08,04,05,0.00
2019,09,08,04,06,0.00
2019,09,08,04,07,0.00
2019,09,08,04,08,0.00
2019,09,08,04,09,0.00
2019,09,08,04,10,0.00
2019,09,08,04,11,0.00
2019,09,08,04,12,0.00
2019,09,08,04,13,0.00
2019,09,08,04,14,0.00
2019,09,08,04,15,0.00
2019,09,08,04,16,0.00
2019,09,08,04,17,0.00
2019,09,08,04,18,0.00
2019,09,08,04,19,0.00
2019,09,08,04,20,0.00
2019,09,08,04,21,0.00
2019,09,08,04,22,0.00
2019,09,08,04,23,0.00
2019,09,08,04,24,0.00
2019,09,08,04,25,0.00
2019,09,08,04,26,0.00
2019,09,08,04,27,0.00
2019,09,08,04,28,0.00
2019,09,08,04,29,0.00
2019,09,08,04,30,0.00
2019,09,08,04,31,0.00
2019,09,08,04,32,0.00
2019,09,08,04,33,0.00
2019,09,08,04,34,0.00
2019,09,08,04,35,0.00
2019,09,08,04,36,0.00
2019,09,08,04,37,0.00
2019,09,08,04,38,0.00
2019,09,08,04,39,0.00
2019,09,08,04,40,0.00
2019,09,08,04,41,0.00
2019,09,08,04,42,0.00
2019,09,08,04,43,0.00
2019,09,08,04,44,0.00
2019,09,08,04,45,0.00
2019,09,08,04,46,0.00
2019,09,08,04,47,0.00
2019,09,08,04,48,0.00
2019,09,08,04,49,0.00
2019,09,08,04,50,0.00
2019,09,08,04,51,0.00
2019,09,08,04,52,0.00
2019,09,08,04,53,0.00
2019,09,08,04,54,0.00
2019,09,08,04,55,0.00
2019,09,08,04,56,0.00
2019,09,08,04,57,0.00
2019,09,08,04,58,0.00
2019,09,08,04,59,0.00
2019,09,08,05,00,0.00
2019,09,08,05,01,0.00
2019,09,08,05,02,0.00
2019,09,08,05,03,0.00
2019,09,08,05,04,0.00
2019,09,08,05,05,0.00
2019,09,08,05,06,0.00
2019,09,08,05,07,0.00
2019,09,08,05,08,0.00
2019,09,08,05,09,0.00
2019,09,08,05,10,0.00
2019,09,08,05,11,0.00
2019,09,08,05,12,0.00
2019,09,08,05,13,0.00
2019,09,08,05,14,0.00
2019,09,08,05,15,0.00
2019,09,08,05,16,0.00
2019,09,08,05,17,0.00
2019,09,08,05,18,0.00
2019,09,08,05,19,0.00
2019,09,08,05,20,0.00
2019,09,08,05,21,0.00
2019,09,08,05,22,0.00
2019,09,08,05,23,0.00
2019,09,08,05,24,0.00
2019,09,08,05,25,0.00
2019,09,08,05,26,0.00
2019,09,08,05,27,0.00
2019,09,08,05,28,0.00
2019,09,08,05,29,0.00
2019,09,08,05,30,0.00
2019,09,08,05,31,0.00
2019,09,08,05,32,0.00
2019,09,08,05,33,0.00
2019,09,08,05,34,0.00
2019,09,08,05,35,0.00
2019,09,08,05,36,0.00
2019,09,08,05,37,0.00
2019,09,08,07,53,62.00
2019,09,08,07,54,61.00
2019,09,08,07,55,55.40
2019,09,08,07,56,49.10
2019,09,08,07,57,46.40
2019,09,08,07,58,46.00
2019,09,08,07,59,46.00
2019,09,08,08,00,44.00
2019,09,08,08,01,43.50
2019,09,08,08,02,42.00
2019,09,08,08,03,42.00
2019,09,08,08,04,42.00
2019,09,08,08,05,42.00
2019,09,08,08,06,42.00
2019,09,08,08,07,41.80
2019,09,08,08,08,40.00
2019,09,08,08,09,40.00
2019,09,08,08,10,40.00
2019,09,08,08,11,40.00
2019,09,08,08,12,41.60
2019,09,08,08,13,42.00
2019,09,08,08,14,42.20
2019,09,08,08,15,44.00
2019,09,08,08,16,44.70
2019,09,08,08,17,46.00
2019,09,08,08,18,46.60
2019,09,08,08,19,48.60
2019,09,08,08,20,50.80
2019,09,08,08,21,51.00
2019,09,08,08,22,51.00
2019,09,08,08,23,51.70
2019,09,08,08,24,53.50
2019,09,08,08,25,54.00
2019,09,08,08,26,54.00
2019,09,08,08,27,54.00
2019,09,08,08,28,56.30
2019,09,08,08,29,58.00
2019,09,08,08,30,58.00
2019,09,08,08,31,58.00
2019,09,08,08,32,58.00
2019,09,08,08,33,58.00
2019,09,08,08,34,58.00
2019,09,08,08,35,59.70
2019,09,08,08,36,58.00
2019,09,08,08,37,58.70
2019,09,08,08,38,59.00
2019,09,08,08,39,56.70
2019,09,08,08,40,56.00
2019,09,08,08,41,56.00
2019,09,08,08,42,56.30
2019,09,08,08,43,59.00
2019,09,08,08,44,63.20
2019,09,08,08,45,67.60
2019,09,08,08,46,72.50
2019,09,08,08,47,75.60
2019,09,08,08,48,77.00
2019,09,08,08,49,79.30
2019,09,08,08,50,80.50
2019,09,08,08,51,79.80
2019,09,08,08,52,82.00
2019,09,08,08,53,83.00
2019,09,08,08,54,85.20
2019,09,08,08,55,86.00
2019,09,08,08,56,93.30
2019,09,08,08,57,95.50
2019,09,08,08,58,97.00
2019,09,08,08,59,97.00
2019,09,08,09,00,97.00
2019,09,08,09,01,97.80
2019,09,08,09,02,95.30
2019,09,08,09,03,90.00
2019,09,08,09,04,92.10
2019,09,08,09,05,100.70
2019,09,08,09,06,108.10
2019,09,08,09,07,112.90
2019,09,08,09,08,115.60
2019,09,08,09,09,116.00
2019,09,08,09,10,112.10
2019,09,08,09,11,106.50
2019,09,08,09,12,105.00
2019,09,08,09,13,104.50
2019,09,08,09,14,104.00
2019,09,08,09,15,104.70
2019,09,08,09,16,106.80
2019,09,08,09,17,111.80
2019,09,08,09,18,119.80
2019,09,08,09,19,126.10
2019,09,08,09,20,128.00
2019,09,08,09,21,128.00
2019,09,08,09,22,132.70
2019,09,08,09,23,140.20
2019,09,08,09,24,143.30
2019,09,08,09,25,152.30
2019,09,08,09,26,153.10
2019,09,08,09,27,143.00
2019,09,08,09,28,131.30
2019,09,08,09,29,128.00
2019,09,08,09,30,128.00
2019,09,08,09,31,126.60
2019,09,08,09,32,122.50
2019,09,08,09,33,121.00
2019,09,08,09,34,119.40
2019,09,08,09,35,115.50
2019,09,08,09,36,111.70
2019,09,08,09,37,105.50
2019,09,08,09,38,99.70
2019,09,08,09,39,96.50
2019,09,08,09,40,94.30
2019,09,08,09,41,92.00
2019,09,08,09,42,90.40
2019,09,08,09,43,90.00
2019,09,08,09,44,88.20
2019,09,08,09,45,88.00
2019,09,08,09,46,87.50
2019,09,08,09,47,86.00
2019,09,08,09,48,86.00
2019,09,08,09,49,88.50
2019,09,08,09,50,90.80
2019,09,08,09,51,94.60
2019,09,08,09,52,98.30
2019,09,08,09,53,101.00
2019,09,08,09,54,105.10
2019,09,08,09,55,107.00
2019,09,08,09,56,111.40
2019,09,08,09,57,118.70
2019,09,08,09,58,124.60
2019,09,08,09,59,130.70
2019,09,08,10,00,136.00
2019,09,08,10,01,140.20
2019,09,08,10,02,145.10
2019,09,08,10,03,152.40
2019,09,08,10,04,160.20
2019,09,08,10,05,166.50
2019,09,08,10,06,169.00
2019,09,08,10,07,168.00
2019,09,08,10,08,164.30
2019,09,08,10,09,162.50
2019,09,08,10,10,159.50
2019,09,08,10,11,155.80
2019,09,08,10,12,155.90
2019,09,08,10,13,166.00
2019,09,08,10,14,173.60
2019,09,08,10,15,178.00
2019,09,08,10,16,177.00
2019,09,08,10,17,172.70
2019,09,08,10,18,168.00
2019,09,08,10,19,167.00
2019,09,08,10,20,166.80
2019,09,08,10,21,164.60
2019,09,08,10,22,164.50
2019,09,08,10,23,170.40
2019,09,08,10,24,179.70
2019,09,08,10,25,193.40
2019,09,08,10,26,209.40
2019,09,08,10,27,223.30
2019,09,08,10,28,225.00
2019,09,08,10,29,226.90
2019,09,08,10,30,233.40
2019,09,08,10,31,245.20
2019,09,08,10,32,256.20
2019,09,08,10,33,249.20
2019,09,08,10,34,212.90
2019,09,08,10,35,183.60
2019,09,08,10,36,170.20
2019,09,08,10,37,173.70
2019,09,08,10,38,184.50
2019,09,08,10,39,194.70
2019,09,08,10,40,195.20
2019,09,08,10,41,195.00
2019,09,08,10,42,194.50
2019,09,08,10,43,191.90
2019,09,08,10,44,190.00
2019,09,08,10,45,191.90
2019,09,08,10,46,194.50
2019,09,08,10,47,198.40
2019,09,08,10,48,202.80
2019,09,08,10,49,210.30
2019,09,08,10,50,214.80
2019,09,08,10,51,215.00
2019,09,08,10,52,215.30
2019,09,08,10,53,216.00
2019,09,08,10,54,211.60
2019,09,08,10,55,206.40
2019,09,08,10,56,210.00
2019,09,08,10,57,214.90
2019,09,08,10,58,219.00
2019,09,08,10,59,216.20
2019,09,08,11,00,210.30
2019,09,08,11,01,198.30
2019,09,08,11,02,197.70
2019,09,08,11,03,202.50
2019,09,08,11,04,205.10
2019,09,08,11,05,210.10
2019,09,08,11,06,213.00
2019,09,08,11,07,197.60
2019,09,08,11,08,175.90
2019,09,08,11,09,170.40
2019,09,08,11,10,184.60
2019,09,08,11,11,198.70
2019,09,08,11,12,209.20
2019,09,08,11,13,216.60
2019,09,08,11,14,211.30
2019,09,08,11,15,192.10
2019,09,08,11,16,176.40
2019,09,08,11,17,180.80
2019,09,08,11,18,186.00
2019,09,08,11,19,186.00
2019,09,08,11,20,187.30
2019,09,08,11,21,191.00
2019,09,08,11,22,190.20
2019,09,08,11,23,194.50
2019,09,08,11,24,212.60
2019,09,08,11,25,228.00
2019,09,08,11,26,242.70
2019,09,08,11,27,259.40
2019,09,08,11,28,265.00
2019,09,08,11,29,303.20
2019,09,08,11,30,306.80
2019,09,08,11,31,279.90
2019,09,08,11,32,244.70
2019,09,08,11,33,235.60
2019,09,08,11,34,254.60
2019,09,08,11,35,275.00
2019,09,08,11,36,268.20
2019,09,08,11,37,274.00
2019,09,08,11,38,273.20
2019,09,08,11,39,271.00
2019,09,08,11,40,276.80
2019,09,08,11,41,286.10
2019,09,08,11,42,297.60
2019,09,08,11,43,303.60
2019,09,08,11,44,300.20
2019,09,08,11,45,291.80
2019,09,08,11,46,278.10
2019,09,08,11,47,261.00
2019,09,08,11,48,250.30
2019,09,08,11,49,237.20
2019,09,08,11,50,215.30
2019,09,08,11,51,202.00
2019,09,08,11,52,202.00
2019,09,08,11,53,202.00
2019,09,08,11,54,204.60
2019,09,08,11,55,210.90
2019,09,08,11,56,216.70
2019,09,08,11,57,218.00
2019,09,08,11,58,213.90
2019,09,08,11,59,213.00
2019,09,08,12,00,213.00
2019,09,08,12,01,213.50
2019,09,08,12,02,216.50
2019,09,08,12,03,219.60
2019,09,08,12,04,222.70
2019,09,08,12,05,227.40
2019,09,08,12,06,230.50
2019,09,08,12,07,233.60
2019,09,08,12,08,237.50
2019,09,08,12,09,241.50
2019,09,08,12,10,245.30
2019,09,08,12,11,249.60
2019,09,08,12,12,256.30
2019,09,08,12,13,265.80
2019,09,08,12,14,274.10
2019,09,08,12,15,284.70
2019,09,08,12,16,297.60
2019,09,08,12,17,312.10
2019,09,08,12,18,321.20
2019,09,08,12,19,331.00
2019,09,08,12,20,340.80
2019,09,08,12,21,348.60
2019,09,08,12,22,357.70
2019,09,08,12,23,364.50
2019,09,08,12,24,366.80
2019,09,08,12,25,368.70
2019,09,08,12,26,370.80
2019,09,08,12,27,369.00
2019,09,08,12,28,369.00
2019,09,08,12,29,370.00
2019,09,08,12,30,374.30
2019,09,08,12,31,379.70
2019,09,08,12,32,386.30
2019,09,08,12,33,388.30
2019,09,08,12,34,389.20
2019,09,08,12,35,384.80
2019,09,08,12,36,380.50
2019,09,08,12,37,378.70
2019,09,08,12,38,374.20
2019,09,08,12,39,367.90
2019,09,08,12,40,361.40
2019,09,08,12,41,356.00
2019,09,08,12,42,353.70
2019,09,08,12,43,369.50
2019,09,08,12,44,372.30
2019,09,08,12,45,369.80
2019,09,08,12,46,379.50
2019,09,08,12,47,385.00
2019,09,08,12,48,384.50
2019,09,08,12,49,381.80
2019,09,08,12,50,376.40
2019,09,08,12,51,367.10
2019,09,08,12,52,355.40
2019,09,08,12,53,345.90
2019,09,08,12,54,337.10
2019,09,08,12,55,328.70
2019,09,08,12,56,323.00
2019,09,08,12,57,317.90
2019,09,08,12,58,317.30
2019,09,08,12,59,321.70
2019,09,08,13,00,331.00
2019,09,08,13,01,344.60
2019,09,08,13,02,363.70
2019,09,08,13,03,387.10
2019,09,08,13,04,399.20
2019,09,08,13,05,389.50
2019,09,08,13,06,373.20
2019,09,08,13,07,360.40
2019,09,08,13,08,351.30
2019,09,08,13,09,344.20
2019,09,08,13,10,336.40
2019,09,08,13,11,329.40
2019,09,08,13,12,322.60
2019,09,08,13,13,316.90
2019,09,08,13,14,313.40
2019,09,08,13,15,313.30
2019,09,08,13,16,317.80
2019,09,08,13,17,326.70
2019,09,08,13,18,338.70
2019,09,08,13,19,349.90
2019,09,08,13,20,359.70
2019,09,08,13,21,368.20
2019,09,08,13,22,382.10
2019,09,08,13,23,407.20
2019,09,08,13,24,439.10
2019,09,08,13,25,431.60
2019,09,08,13,26,461.50
2019,09,08,13,27,545.60
2019,09,08,13,28,570.00
2019,09,08,13,29,993.60
2019,09,08,13,30,1014.00
2019,09,08,13,31,1014.00
2019,09,08,13,32,738.10
2019,09,08,13,33,511.60
2019,09,08,13,34,467.60
2019,09,08,13,35,450.00
2019,09,08,13,36,433.10
2019,09,08,13,37,334.40
2019,09,08,13,38,328.80
2019,09,08,13,39,330.60
2019,09,08,13,40,393.50
2019,09,08,13,41,425.00
2019,09,08,13,42,781.40
2019,09,08,13,43,826.00
2019,09,08,13,44,826.00
2019,09,08,13,45,745.30
2019,09,08,13,46,628.00
2019,09,08,13,47,476.30
2019,09,08,13,48,417.50
2019,09,08,13,49,385.90
2019,09,08,13,50,385.40
2019,09,08,13,51,389.80
2019,09,08,13,52,396.40
2019,09,08,13,53,419.10
2019,09,08,13,54,437.30
2019,09,08,13,55,419.90
2019,09,08,13,56,438.10
2019,09,08,13,57,455.90
2019,09,08,13,58,548.40
2019,09,08,13,59,473.00
2019,09,08,14,00,420.50
2019,09,08,14,01,343.10
2019,09,08,14,02,321.60
2019,09,08,14,03,309.50
2019,09,08,14,04,300.30
2019,09,08,14,05,293.20
2019,09,08,14,06,286.80
2019,09,08,14,07,282.90
2019,09,08,14,08,279.00
2019,09,08,14,09,275.00
2019,09,08,14,10,272.20
2019,09,08,14,11,274.30
2019,09,08,14,12,276.50
2019,09,08,14,13,278.40
2019,09,08,14,14,279.00
2019,09,08,14,15,278.30
2019,09,08,14,16,276.50
2019,09,08,14,17,276.00
2019,09,08,14,18,276.00
2019,09,08,14,19,276.50
2019,09,08,14,20,278.00
2019,09,08,14,21,278.50
2019,09,08,14,22,280.30
2019,09,08,14,23,284.00
2019,09,08,14,24,289.80
2019,09,08,14,25,301.20
2019,09,08,14,26,327.10
2019,09,08,14,27,355.20
2019,09,08,14,28,355.40
2019,09,08,14,29,361.40
2019,09,08,14,30,427.80
2019,09,08,14,31,454.00
2019,09,08,14,32,459.30
2019,09,08,14,33,388.20
2019,09,08,14,34,370.30
2019,09,08,14,35,352.00
2019,09,08,14,36,345.60
2019,09,08,14,37,361.60
2019,09,08,14,38,416.60
2019,09,08,14,39,393.00
2019,09,08,14,40,397.00
2019,09,08,14,41,435.10
2019,09,08,14,42,379.10
2019,09,08,14,43,357.00
2019,09,08,14,44,357.00
2019,09,08,14,45,693.30
2019,09,08,14,46,782.20
2019,09,08,14,47,725.30
2019,09,08,14,48,689.00
2019,09,08,14,49,689.00
2019,09,08,14,50,485.60
2019,09,08,14,51,397.10
2019,09,08,14,52,406.00
2019,09,08,14,53,406.00
2019,09,08,14,54,457.10
2019,09,08,14,55,603.00
2019,09,08,14,56,669.00
2019,09,08,14,57,729.90
2019,09,08,14,58,727.70
2019,09,08,14,59,717.10
2019,09,08,15,00,728.40
2019,09,08,15,01,728.70
2019,09,08,15,02,742.00
2019,09,08,15,03,709.90
2019,09,08,15,04,722.50
2019,09,08,15,05,745.00
2019,09,08,15,06,745.00
2019,09,08,15,07,489.00
2019,09,08,15,08,436.80
2019,09,08,15,09,288.70
2019,09,08,15,10,274.40
2019,09,08,15,11,293.00
2019,09,08,15,12,333.20
2019,09,08,15,13,341.00
2019,09,08,15,14,575.00
2019,09,08,15,15,575.00
2019,09,08,15,16,451.10
2019,09,08,15,17,271.00
2019,09,08,15,18,237.00
2019,09,08,15,19,222.30
2019,09,08,15,20,220.30
2019,09,08,15,21,303.10
2019,09,08,15,22,269.00
2019,09,08,15,23,269.00
2019,09,08,15,24,269.00
2019,09,08,15,25,269.00
2019,09,08,15,26,269.00
2019,09,08,15,27,343.30
2019,09,08,15,28,377.80
2019,09,08,15,29,385.60
2019,09,08,15,30,413.70
2019,09,08,15,31,423.30
2019,09,08,15,32,439.80
2019,09,08,15,33,468.30
2019,09,08,15,34,543.40
2019,09,08,15,35,573.60
2019,09,08,15,36,696.10
2019,09,08,15,37,684.70
2019,09,08,15,38,655.00
2019,09,08,15,39,578.30
2019,09,08,15,40,606.50
2019,09,08,15,41,660.00
2019,09,08,15,42,645.30
2019,09,08,15,43,632.60
2019,09,08,15,44,656.60
2019,09,08,15,45,654.00
2019,09,08,15,46,656.40
2019,09,08,15,47,659.00
2019,09,08,15,48,587.00
2019,09,08,15,49,635.40
2019,09,08,15,50,643.60
2019,09,08,15,51,603.60
2019,09,08,15,52,547.80
2019,09,08,15,53,506.10
2019,09,08,15,54,449.60
2019,09,08,15,55,353.10
2019,09,08,15,56,278.30
2019,09,08,15,57,248.80
2019,09,08,15,58,243.00
2019,09,08,15,59,240.90
2019,09,08,16,00,237.70
2019,09,08,16,01,236.20
2019,09,08,16,02,234.10
2019,09,08,16,03,229.60
2019,09,08,16,04,226.50
2019,09,08,16,05,224.20
2019,09,08,16,06,222.00
2019,09,08,16,07,222.30
2019,09,08,16,08,223.00
2019,09,08,16,09,224.80
2019,09,08,16,10,227.40
2019,09,08,16,11,231.60
2019,09,08,16,12,239.30
2019,09,08,16,13,252.00
2019,09,08,16,14,272.00
2019,09,08,16,15,324.90
2019,09,08,16,16,341.00
2019,09,08,16,17,357.80
2019,09,08,16,18,377.70
2019,09,08,16,19,371.00
2019,09,08,16,20,479.00
2019,09,08,16,21,611.60
2019,09,08,16,22,584.50
2019,09,08,16,23,550.40
2019,09,08,16,24,509.00
2019,09,08,16,25,490.60
2019,09,08,16,26,438.70
2019,09,08,16,27,380.30
2019,09,08,16,28,326.00
2019,09,08,16,29,335.00
2019,09,08,16,30,300.10
2019,09,08,16,31,293.00
2019,09,08,16,32,281.10
2019,09,08,16,33,264.60
2019,09,08,16,34,252.50
2019,09,08,16,35,236.60
2019,09,08,16,36,228.60
2019,09,08,16,37,221.70
2019,09,08,16,38,217.70
2019,09,08,16,39,215.50
2019,09,08,16,40,213.60
2019,09,08,16,41,213.00
2019,09,08,16,42,211.70
2019,09,08,16,43,211.00
2019,09,08,16,44,211.00
2019,09,08,16,45,210.70
2019,09,08,16,46,209.00
2019,09,08,16,47,208.30
2019,09,08,16,48,206.50
2019,09,08,16,49,203.50
2019,09,08,16,50,202.00
2019,09,08,16,51,200.20
2019,09,08,16,52,200.00
2019,09,08,16,53,199.70
2019,09,08,16,54,199.00
2019,09,08,16,55,199.00
2019,09,08,16,56,199.00
2019,09,08,16,57,199.00
2019,09,08,16,58,199.90
2019,09,08,16,59,200.00
2019,09,08,17,00,200.00
2019,09,08,17,01,200.80
2019,09,08,17,02,202.00
2019,09,08,17,03,202.00
2019,09,08,17,04,202.00
2019,09,08,17,05,203.80
2019,09,08,17,06,203.70
2019,09,08,17,07,201.50
2019,09,08,17,08,200.00
2019,09,08,17,09,198.40
2019,09,08,17,10,193.90
2019,09,08,17,11,189.00
2019,09,08,17,12,181.80
2019,09,08,17,13,177.40
2019,09,08,17,14,173.20
2019,09,08,17,15,170.30
2019,09,08,17,16,169.00
2019,09,08,17,17,167.70
2019,09,08,17,18,167.00
2019,09,08,17,19,165.10
2019,09,08,17,20,162.70
2019,09,08,17,21,159.00
2019,09,08,17,22,154.90
2019,09,08,17,23,150.90
2019,09,08,17,24,147.10
2019,09,08,17,25,144.40
2019,09,08,17,26,142.20
2019,09,08,17,27,140.80
2019,09,08,17,28,138.50
2019,09,08,17,29,136.20
2019,09,08,17,30,134.50
2019,09,08,17,31,132.70
2019,09,08,17,32,130.50
2019,09,08,17,33,128.20
2019,09,08,17,34,125.00
2019,09,08,17,35,124.50
2019,09,08,17,36,122.20
2019,09,08,17,37,121.00
2019,09,08,17,38,121.00
2019,09,08,17,39,121.00
2019,09,08,17,40,121.00
2019,09,08,17,41,121.00
2019,09,08,17,42,121.50
2019,09,08,17,43,123.00
2019,09,08,17,44,123.00
2019,09,08,17,45,121.70
2019,09,08,17,46,121.00
2019,09,08,17,47,121.00
2019,09,08,17,48,119.70
2019,09,08,17,49,117.50
2019,09,08,17,50,116.00
2019,09,08,17,51,115.00
2019,09,08,17,52,113.40
2019,09,08,17,53,111.40
2019,09,08,17,54,109.20
2019,09,08,17,55,107.00
2019,09,08,17,56,106.50
2019,09,08,17,57,105.00
2019,09,08,17,58,105.00
2019,09,08,17,59,105.00
2019,09,08,18,00,106.50
2019,09,08,18,01,107.00
2019,09,08,18,02,107.00
2019,09,08,18,03,107.00
2019,09,08,18,04,107.80
2019,09,08,18,05,109.00
2019,09,08,18,06,107.70
2019,09,08,18,07,107.00
2019,09,08,18,08,107.10
2019,09,08,18,09,109.30
2019,09,08,18,10,111.80
2019,09,08,18,11,116.70
2019,09,08,18,12,142.30
2019,09,08,18,13,140.00
2019,09,08,18,14,132.40
2019,09,08,18,15,169.30
2019,09,08,18,16,173.50
2019,09,08,18,17,212.30
2019,09,08,18,18,212.30
2019,09,08,18,19,198.70
2019,09,08,18,20,205.20
2019,09,08,18,21,189.70
2019,09,08,18,22,199.90
2019,09,08,18,23,201.30
2019,09,08,18,24,192.20
2019,09,08,18,25,182.50
2019,09,08,18,26,180.00
2019,09,08,18,27,182.10
2019,09,08,18,28,188.00
2019,09,08,18,29,166.20
2019,09,08,18,30,174.50
2019,09,08,18,31,176.20
2019,09,08,18,32,155.10
2019,09,08,18,33,132.30
2019,09,08,18,34,151.50
2019,09,08,18,35,160.00
2019,09,08,18,36,156.50
2019,09,08,18,37,144.40
2019,09,08,18,38,107.40
2019,09,08,18,39,77.50
2019,09,08,18,40,68.00
2019,09,08,18,41,65.70
2019,09,08,18,42,63.50
2019,09,08,18,43,63.00
2019,09,08,18,44,61.70
2019,09,08,18,45,59.00
2019,09,08,18,46,55.20
2019,09,08,18,47,53.50
2019,09,08,18,48,50.50
2019,09,08,18,49,47.40
2019,09,08,18,50,46.10
2019,09,08,18,51,43.70
2019,09,08,18,52,41.50
2019,09,08,18,53,40.00
2019,09,08,18,54,39.50
2019,09,08,18,55,39.00
2019,09,08,18,56,39.00
2019,09,08,18,57,37.20
2019,09,08,18,58,37.00
2019,09,08,18,59,36.50
2019,09,08,19,00,35.00
2019,09,08,19,01,35.00
2019,09,08,19,02,33.80
2019,09,08,19,03,33.00
2019,09,08,19,04,34.80
2019,09,08,19,05,33.00
2019,09,08,19,06,33.00
2019,09,08,19,07,33.00
2019,09,08,19,08,33.00
2019,09,08,19,09,33.00
2019,09,08,19,10,33.00
2019,09,08,19,11,33.00
2019,09,08,19,12,33.00
2019,09,08,19,13,33.50
2019,09,08,19,14,35.00
2019,09,08,19,15,34.00
2019,09,08,19,16,31.10
2019,09,08,19,17,28.50
2019,09,08,19,18,26.20
2019,09,08,19,19,25.90
2019,09,08,19,20,25.00
2019,09,08,19,21,24.20
2019,09,08,19,22,22.00
2019,09,08,19,23,21.00
2019,09,08,19,24,19.40